Tracking 30692 objects as of 16-Jun-2025
HD Live streaming from Space Station
objects crossing your sky now

STARLINK-32253

Track STARLINK-32253 now!
10-day predictions
STARLINK-32253 is classified as:


NORAD ID: 60733
Int'l Code: 2024-152P
Perigee: 481.4 km
Apogee: 483.3 km
Inclination: 53.2 °
Period: 94.1 minutes
Semi major axis: 6853 km
RCS: Unknown
Launch date: August 28, 2024
Source: United States (US)
Launch site: AIR FORCE EASTERN TEST RANGE (AFETR)
Your satellite tracking list
Your tracking list is empty




NASA's NSSDC Master Catalog

Two Line Element Set (TLE):
1 60733U 24152P   25167.41292731  .00001751  00000-0  71246-4 0  9991
2 60733  53.1612  65.1839 0001345  97.5114 262.6040 15.30199268 46038
Source of the keplerian elements: AFSPC